Torna al catalogo

STARLINK-2147

AttivoComunicazioniVLEO
NORAD 47736·PAYLOAD·🇺🇸 United States

Lanciato Mar 4, 2021 da Cape Canaveral Space Force Station

Loading…

Prossimi Passaggi (prossime 24 ore)

TLE

AggiornatoSource: CelesTrak SupGP

Epoca: Sep 14, 2026, 21:12 UTC

1 47736C 21017Q   26257.88381944  .00089825  00000+0  59210-3 0  2573
2 47736  53.0690  16.0890 0004370 326.6504  55.3798 15.74892478    19

Traccia STARLINK-2147 in tempo reale con AllMySat

Download on the App Store